24-hrs_data_Kizahashi_2011.csv,,,,,,,,,,,,,,,,,,,,,,,
TIMESTAMP,Wind speed,Wind direction,Wind_Spd_Max,Wind_Spd_TMx,Wind_Dir_SMM,Air_Temp_Avg,Air_Temp_Max,Air_Temp_TMx,Air_Temp_Min,Air_Temp_TMn,Humidity_Avg,Humidity_Max,Humidity_TMx,Humidity_Min,Humidity_TMn,Solar radiation,PAR_Avg,UV_Wm2_Avg,Press_hPa_Avg,Press_hPa_Max,Press_hPa_TMx,Press_hPa_Min,Press_hPa_TMn
(yyyy/mm/dd hh:mm),(m/s),(degree),(m/s),(yyyy/mm/dd hh:mm),(degree),(��),(��),(yyyy/mm/dd hh:mm),(��),(yyyy/mm/dd hh:mm),(%),(%),(yyyy/mm/dd hh:mm),(%),(yyyy/mm/dd hh:mm),(W/m^2),(micro-mol/m^2/s),(W/m^2),(hPa),(hPa),(yyyy/mm/dd hh:mm),(hPa),(yyyy/mm/dd hh:mm)
,Avg,Avg,Max,TMx,SMM,Avg,Max,TMx,Min,TMn,Avg,Max,TMx,Min,TMn,Avg,Avg,Avg,Avg,Max,TMx,Min,TMn
2011/1/1 0:00,3.21,48.37,9.8,2010/12/31 11:22,57.41,1.05,3.353,2010/12/31 14:22,-3.93,2010/12/31 2:52,47.99,72.34,2010/12/31 21:12,33.05,2010/12/31 11:23,216.9112,456.4969,14.02532,993.5861,994.7116,2010/12/31 13:49,991.8541,2010/12/31 20:37
2011/1/2 0:00,2.967,229.6,9.51,2011/1/1 18:26,215.3,0.327,2.249,2011/1/1 19:25,-1.384,2011/1/1 5:24,60.89,83.5,2011/1/1 5:18,38.42,2011/1/1 8:33,125.4835,279.9491,8.546536,991.0149,992.7238,2011/1/1 23:59,989.9905,2011/1/1 17:53
2011/1/3 0:00,2.715,35.57,14.99,2011/1/2 11:13,70.34,1.485,3.055,2011/1/2 13:46,-0.344,2011/1/2 23:26,52.69,81.6,2011/1/2 23:29,39.46,2011/1/2 6:06,95.38846,226.6242,6.855116,995.3328,996.5752,2011/1/2 13:43,992.5995,2011/1/2 0:01
2011/1/4 0:00,7.167,63.12,28.13,2011/1/3 14:04,88.5,2.61,3.786,2011/1/3 11:55,0.775,2011/1/3 4:34,44.68,66.65,2011/1/3 0:06,34.04,2011/1/3 7:52,95.88129,240.1159,7.26645,980.3381,994.8358,2011/1/3 0:00,970.3605,2011/1/3 19:43
2011/1/5 0:00,5.22,48.67,24.3,2011/1/4 1:18,113.4,2.456,4.559,2011/1/4 14:43,-0.76,2011/1/4 23:13,54.77,94.7,2011/1/4 23:27,38.89,2011/1/4 11:04,108.0699,257.9124,7.846848,977.1163,981.7906,2011/1/4 23:43,972.7211,2011/1/4 0:06
2011/1/6 0:00,1.968,347.8,7.644,2011/1/5 7:07,99.1,1.747,4.726,2011/1/5 15:55,-1.224,2011/1/5 3:39,66.21,96.3,2011/1/5 4:08,41.58,2011/1/5 12:50,207.571,425.7663,12.24264,979.7777,981.9149,2011/1/5 0:16,977.5001,2011/1/5 21:26
2011/1/7 0:00,3.655,56.51,14.8,2011/1/6 23:25,82.7,3.562,7.464,2011/1/6 20:16,-2.214,2011/1/6 4:18,42.66,72.47,2011/1/6 0:04,27.62,2011/1/6 20:43,377.3342,651.7424,18.96911,978.1002,982.4023,2011/1/6 23:57,977.0695,2011/1/6 9:07
2011/1/8 0:00,4.054,32.29,15.29,2011/1/7 3:37,98.5,3.879,8.76,2011/1/7 15:24,-1.814,2011/1/7 23:59,47.32,93.8,2011/1/8 0:00,30.52,2011/1/7 15:32,308.0277,562.6279,16.63313,990.6526,996.6803,2011/1/8 0:00,982.4023,2011/1/7 0:00
2011/1/9 0:00,1.949,0.421,5.488,2011/1/8 14:25,320.6,-2.332,-0.679,2011/1/8 13:35,-3.793,2011/1/8 4:26,87.3,99.1,2011/1/8 2:30,75.34,2011/1/8 16:54,224.8163,404.7321,12.09189,997.6662,998.563,2011/1/8 7:31,996.6803,2011/1/8 0:00
2011/1/10 0:00,2.617,251.2,6.174,2011/1/9 13:13,232.6,-1.432,0.821,2011/1/9 12:28,-3.759,2011/1/9 23:18,80.5,89.3,2011/1/9 5:09,68.76,2011/1/9 11:37,353.5441,609.3777,17.73603,994.4985,996.9479,2011/1/9 0:00,992.4755,2011/1/9 20:37
2011/1/11 0:00,1.994,337.6,6.664,2011/1/10 11:20,242.6,-1.958,1.764,2011/1/10 17:43,-6.116,2011/1/10 4:42,85.1,99,2011/1/10 5:32,66.61,2011/1/10 17:39,387.9784,645.2039,19.53591,991.9792,993.3452,2011/1/10 4:20,990.1639,2011/1/10 19:35
2011/1/12 0:00,2.784,267.3,7.154,2011/1/11 15:43,223.9,1.108,4.019,2011/1/11 15:10,-3.353,2011/1/11 0:39,56.79,89.2,2011/1/11 0:06,36.99,2011/1/11 17:16,300.6413,538.4709,15.72413,989.4652,991.4813,2011/1/11 3:40,986.4444,2011/1/11 20:15
2011/1/13 0:00,3.083,335.1,11.17,2011/1/12 3:03,68.89,2.713,6.008,2011/1/12 18:28,-3.235,2011/1/12 0:49,46.06,78.42,2011/1/12 0:25,32,2011/1/12 19:43,366.4944,624.0847,18.22838,984.9121,986.8731,2011/1/12 1:33,983.1472,2011/1/12 17:34
2011/1/14 0:00,2.778,18.72,8.43,2011/1/13 5:24,77.5,2.794,6.465,2011/1/13 18:04,-2.051,2011/1/13 0:50,51.75,79.59,2011/1/13 23:58,34.05,2011/1/13 15:48,327.7813,583.5971,16.93658,992.4284,997.7977,2011/1/13 23:32,985.5062,2011/1/13 0:00
2011/1/15 0:00,2.706,257.8,6.762,2011/1/14 13:46,230.1,3.933,6.785,2011/1/14 10:41,0.645,2011/1/14 0:00,57.9,80,2011/1/14 0:08,36.72,2011/1/14 10:40,330.8708,598.5537,17.20374,998.7228,999.9622,2011/1/14 10:28,997.6738,2011/1/14 1:07
2011/1/16 0:00,4.955,54.19,12.94,2011/1/15 6:13,81.3,3.939,7.463,2011/1/15 16:56,0.272,2011/1/15 0:50,39.2,67.56,2011/1/15 0:50,28.57,2011/1/15 9:17,281.5756,547.8373,15.87621,996.871,998.9152,2011/1/15 0:00,994.4455,2011/1/15 18:56
2011/1/17 0:00,3.643,69.68,12.25,2011/1/16 23:46,79.42,3.584,5.855,2011/1/16 15:30,1.313,2011/1/16 2:16,48.5,73.74,2011/1/16 20:10,33.38,2011/1/16 4:13,102.5499,241.1943,7.0033,999.956,1003.036,2011/1/16 23:55,995.4391,2011/1/16 0:36
2011/1/18 0:00,5.981,69.05,24.4,2011/1/17 21:52,68.41,4.695,6.554,2011/1/17 18:14,2.715,2011/1/17 3:05,43.69,63.91,2011/1/17 17:02,35.88,2011/1/17 18:24,71.80194,189.9174,6.045564,997.613,1003.284,2011/1/17 0:22,989.4537,2011/1/17 21:53
2011/1/19 0:00,5.616,70.46,16.56,2011/1/18 10:17,35.4,4.611,6.303,2011/1/18 0:11,3.113,2011/1/18 21:30,46.77,53.74,2011/1/18 2:24,36.29,2011/1/18 0:12,48.49966,135.2447,4.322871,991.528,996.4509,2011/1/18 23:48,988.3447,2011/1/18 2:57
2011/1/20 0:00,4.919,66.57,16.07,2011/1/19 0:07,85.2,3.436,5.101,2011/1/19 11:43,1.359,2011/1/19 23:52,51.63,73.08,2011/1/19 23:51,39.79,2011/1/19 12:54,97.70971,236.9049,7.356584,998.8719,1000.799,2011/1/19 14:41,996.3267,2011/1/19 0:00
2011/1/21 0:00,5.49,59.61,26.66,2011/1/20 11:29,102.4,3.551,5.225,2011/1/20 13:30,0.985,2011/1/20 1:53,47.92,79.89,2011/1/20 20:45,30.09,2011/1/20 5:44,78.06572,187.673,5.810207,989.3277,997.3207,2011/1/20 0:01,986.0148,2011/1/20 23:57
2011/1/22 0:00,2.713,229,8.23,2011/1/21 1:19,108.1,2.051,3.771,2011/1/21 12:21,0.237,2011/1/21 22:05,60.51,87.1,2011/1/21 22:04,40.2,2011/1/21 12:20,78.50193,191.0323,5.770894,983.5753,986.0148,2011/1/21 0:00,981.7906,2011/1/21 11:04
2011/1/23 0:00,4.081,131.2,15.48,2011/1/22 10:22,98.1,1.289,3.854,2011/1/22 11:27,-0.974,2011/1/22 4:34,59.8,86.3,2011/1/22 3:20,36.7,2011/1/22 23:48,120.4182,256.3103,7.881422,984.4833,986.7603,2011/1/22 3:23,980.9209,2011/1/22 23:47
2011/1/24 0:00,3.713,39.9,17.54,2011/1/23 6:13,92.8,1.386,3.19,2011/1/23 10:52,-0.813,2011/1/23 2:04,62.49,96.4,2011/1/23 15:19,33.09,2011/1/23 0:18,99.84773,220.9667,6.793302,978.4907,980.9209,2011/1/23 0:00,976.1998,2011/1/23 20:09
2011/1/25 0:00,2.589,3.763,7.742,2011/1/24 6:53,80.4,1.336,3.564,2011/1/24 8:29,-0.51,2011/1/24 21:08,67.57,89.2,2011/1/24 20:50,46.1,2011/1/24 8:14,161.8326,343.8332,10.25857,980.928,983.6542,2011/1/24 23:57,976.821,2011/1/24 0:18
2011/1/26 0:00,1.926,242.4,8.13,2011/1/25 14:45,6.699,0.192,1.903,2011/1/25 11:26,-1.259,2011/1/25 4:13,82,93.4,2011/1/25 20:48,61.84,2011/1/25 7:59,95.82404,211.0888,6.34381,988.4909,993.7177,2011/1/25 23:55,983.53,2011/1/25 0:00
2011/1/27 0:00,2.802,249.5,11.37,2011/1/26 23:57,72.73,-0.018,2.728,2011/1/26 23:57,-2.05,2011/1/26 5:55,78.61,96.6,2011/1/26 6:00,49.73,2011/1/26 23:56,207.1275,397.4495,11.11472,988.8701,994.3389,2011/1/26 1:44,982.7848,2011/1/26 23:58
2011/1/28 0:00,8.2,64.93,25.28,2011/1/27 20:03,64.11,3.406,6.665,2011/1/27 15:38,-1.008,2011/1/27 6:46,63.34,99.2,2011/1/27 6:50,46.17,2011/1/27 15:38,52.31459,138.6989,4.365473,981.896,984.2756,2011/1/27 23:53,979.0576,2011/1/27 19:27
2011/1/29 0:00,3.015,219,13.72,2011/1/28 2:43,86.1,1.281,3.31,2011/1/28 0:39,0.041,2011/1/28 23:41,81.8,95.5,2011/1/28 19:19,65.68,2011/1/28 16:02,93.62695,206.5146,6.112399,990.1588,993.0967,2011/1/28 21:07,984.2756,2011/1/28 0:00
2011/1/30 0:00,2.558,227.8,7.84,2011/1/29 19:21,225.8,1.308,3.676,2011/1/29 11:32,-0.593,2011/1/29 22:56,82,98.9,2011/1/29 6:23,41.78,2011/1/29 23:56,156.5954,329.2577,9.950452,987.6598,992.5997,2011/1/29 0:02,985.2696,2011/1/29 19:02
2011/1/31 0:00,3.912,239.3,17.35,2011/1/30 10:18,161.3,1.557,3.73,2011/1/30 11:53,-0.733,2011/1/30 5:45,68.83,96,2011/1/30 5:57,40.57,2011/1/30 0:21,80.60696,190.696,5.793146,987.5647,990.2392,2011/1/30 23:47,985.3938,2011/1/30 0:27
2011/2/1 0:00,2.692,238.6,5.978,2011/1/31 3:41,229.2,0.145,1.702,2011/1/31 18:24,-2.878,2011/1/31 23:59,86.9,96.5,2011/1/31 3:05,66.02,2011/1/31 7:38,164.5668,326.831,9.006968,989.3212,990.9846,2011/1/31 9:48,986.8847,2011/1/31 21:04
2011/2/2 0:00,1.825,20.62,4.998,2011/2/1 12:16,70.83,-2.676,-0.668,2011/2/1 15:01,-5.904,2011/2/1 6:33,86.4,99.7,2011/2/1 2:37,74.18,2011/2/1 23:02,118.6073,241.2817,7.680711,991.0926,995.2036,2011/2/1 23:40,986.8847,2011/2/1 0:00
2011/2/3 0:00,1.84,249.9,4.312,2011/2/2 20:48,232.6,-2.414,-1.263,2011/2/2 12:07,-3.206,2011/2/2 23:36,78.2,87.6,2011/2/2 20:46,64.82,2011/2/2 6:01,60.7262,141.1696,4.465607,996.0106,996.585,2011/2/2 23:07,995.1847,2011/2/2 0:07
2011/2/4 0:00,2.542,239.4,5.782,2011/2/3 23:59,15.32,-2.884,-1.96,2011/2/3 11:57,-5.356,2011/2/3 23:59,90.5,99.3,2011/2/3 22:33,77.25,2011/2/3 23:56,110.4781,223.6417,6.857149,995.4445,996.585,2011/2/3 1:06,992.4836,2011/2/3 23:42
2011/2/5 0:00,2.955,3.862,7.742,2011/2/4 16:05,223.9,-2.494,0.816,2011/2/4 19:35,-6.608,2011/2/4 2:26,53.63,80.3,2011/2/4 0:12,41.27,2011/2/4 21:02,312.8862,504.4585,14.39417,986.6619,992.4836,2011/2/4 0:00,982.5363,2011/2/4 23:38
2011/2/6 0:00,2.112,345.2,6.664,2011/2/5 0:00,65.55,-4.478,-0.634,2011/2/5 14:21,-8.56,2011/2/5 5:30,57.17,75.54,2011/2/5 21:52,40.61,2011/2/5 13:43,308.6098,493.5378,14.25792,982.9585,985.8908,2011/2/5 23:56,982.0439,2011/2/5 6:23
2011/2/7 0:00,2.634,264.1,8.23,2011/2/6 13:31,226.9,-4.207,0.778,2011/2/6 18:23,-8.77,2011/2/6 1:56,56.72,74.27,2011/2/6 23:38,36.05,2011/2/6 18:24,295.0077,473.1597,13.64621,988.7184,991.6058,2011/2/6 23:43,985.8908,2011/2/6 0:00
2011/2/8 0:00,1.595,356.9,4.9,2011/2/7 7:54,237.4,-4.169,-1.221,2011/2/7 15:55,-7.852,2011/2/7 22:33,67.67,87.4,2011/2/7 21:52,44.14,2011/2/7 15:21,261.2661,439.694,12.94809,993.5726,994.4723,2011/2/7 12:42,991.6058,2011/2/7 0:00
2011/2/9 0:00,2.372,299,6.664,2011/2/8 23:57,69.4,-5.556,-1.505,2011/2/8 17:41,-10.71,2011/2/8 4:32,57.12,81.2,2011/2/8 0:04,37.56,2011/2/8 8:51,287.1877,455.6808,13.23399,993.109,993.9836,2011/2/8 6:16,991.8544,2011/2/8 20:28
2011/2/10 0:00,2.534,324.3,8.23,2011/2/9 3:03,97.7,-4.551,-1.112,2011/2/9 16:31,-9.05,2011/2/9 22:04,51.04,83.1,2011/2/9 23:22,32.75,2011/2/9 15:47,293.3456,464.1586,13.34639,990.0689,992.3594,2011/2/9 1:16,988.7483,2011/2/9 16:02
2011/2/11 0:00,2.619,247.1,7.448,2011/2/10 19:34,229.7,-4.504,-1.294,2011/2/10 12:06,-9.14,2011/2/10 5:13,61.95,80.3,2011/2/10 5:44,40.73,2011/2/10 12:07,237.8319,397.436,11.85083,991.1943,992.1188,2011/2/10 8:06,989.4938,2011/2/10 0:00
2011/2/12 0:00,3.142,33.73,7.742,2011/2/11 5:27,73.72,-3.256,-0.639,2011/2/11 17:28,-9.72,2011/2/11 22:49,53.43,87.1,2011/2/11 22:51,34.08,2011/2/11 10:23,284.7662,454.6486,12.78164,987.5525,990.115,2011/2/11 0:00,985.0211,2011/2/11 18:55
2011/2/13 0:00,2.304,348.8,7.448,2011/2/12 17:13,224.9,-6.85,-2.925,2011/2/12 17:37,-10.84,2011/2/12 5:56,52.58,74.99,2011/2/12 22:31,33.82,2011/2/12 7:15,287.5652,444.4997,12.76783,989.1988,994.2228,2011/2/12 23:59,985.3938,2011/2/12 0:09
2011/2/14 0:00,1.993,306.4,5.292,2011/2/13 18:07,236.4,-4.321,-0.303,2011/2/13 22:56,-8.85,2011/2/13 3:25,45.55,65.28,2011/2/13 21:15,27.75,2011/2/13 11:18,224.8172,381.4438,11.18713,996.3018,997.8748,2011/2/13 23:56,994.2228,2011/2/13 0:00
2011/2/15 0:00,2.07,303.9,8.43,2011/2/14 6:04,93.8,-1.624,0.089,2011/2/14 7:08,-3.913,2011/2/14 1:23,67.31,86.2,2011/2/14 14:56,32.63,2011/2/14 5:56,93.08369,198.9658,6.165122,1001.781,1008.074,2011/2/14 23:49,997.3307,2011/2/14 2:42
2011/2/16 0:00,4.574,255.9,26.56,2011/2/15 22:32,47.37,0.643,4.949,2011/2/15 21:51,-2.915,2011/2/15 7:49,60.94,87.3,2011/2/15 17:33,32.66,2011/2/15 13:08,124.4746,265.622,7.655721,1005.558,1009.759,2011/2/15 2:14,995.2089,2011/2/15 23:40
2011/2/17 0:00,10.18,48.04,42.24,2011/2/16 20:11,66.51,3.054,7.81,2011/2/16 19:13,0.255,2011/2/16 15:33,72.04,97,2011/2/16 15:47,56.2,2011/2/16 0:35,39.9459,97.76094,3.124983,990.629,1003.284,2011/2/16 7:52,966.882,2011/2/16 23:18
2011/2/18 0:00,6.551,35.89,36.26,2011/2/17 2:09,46.42,0.536,3.644,2011/2/17 0:10,-0.634,2011/2/17 5:26,87.8,98.8,2011/2/17 7:37,60.52,2011/2/17 0:38,85.83633,195.7872,6.160729,992.579,998.4756,2011/2/17 22:41,968.6213,2011/2/17 0:15
2011/2/19 0:00,1.783,64.46,6.37,2011/2/18 10:37,67,-0.357,2.442,2011/2/18 12:32,-5.325,2011/2/18 23:21,77.12,95.6,2011/2/18 3:12,53.42,2011/2/18 12:00,123.749,244.7696,7.552499,994.5788,998.3318,2011/2/18 0:00,988.6426,2011/2/19 0:00
2011/2/20 0:00,10.62,70.56,27.73,2011/2/19 12:30,87.1,-0.669,2.406,2011/2/19 23:14,-5.985,2011/2/19 2:20,57.29,68.18,2011/2/19 2:20,38.02,2011/2/19 7:11,58.70419,146.6306,4.590141,975.6389,988.6426,2011/2/19 0:00,967.8759,2011/2/19 20:02
2011/2/21 0:00,6.567,49.22,21.56,2011/2/20 0:22,75.14,1.233,3.066,2011/2/20 13:23,-1.006,2011/2/20 23:56,79.01,96.9,2011/2/20 20:00,60.16,2011/2/20 0:03,81.97641,182.2553,5.55383,989.067,1002.787,2011/2/20 23:47,971.7286,2011/2/20 0:00
2011/2/22 0:00,2.14,29.82,8.43,2011/2/21 15:14,62.68,-1.087,3.602,2011/2/21 15:25,-5.317,2011/2/21 8:01,55.89,89.5,2011/2/21 0:00,30.69,2011/2/21 15:13,220.6836,357.8427,10.24033,994.8729,1003.341,2011/2/21 2:28,987.1332,2011/2/21 20:48
2011/2/23 0:00,1.945,15.29,4.9,2011/2/22 20:51,42.12,-5.943,-2.761,2011/2/22 13:06,-8.43,2011/2/22 23:59,62.15,86.2,2011/2/22 23:33,40.44,2011/2/22 0:00,188.0267,317.7871,9.445346,983.0206,988.1271,2011/2/22 0:23,978.3154,2011/2/22 23:53
2011/2/24 0:00,1.891,19.65,6.076,2011/2/23 9:14,68.94,-4.016,-1.294,2011/2/23 14:25,-8.6,2011/2/23 0:25,71.82,86.1,2011/2/23 6:11,47.46,2011/2/23 23:48,126.1331,238.2325,7.281505,973.9172,978.3742,2011/2/23 0:31,970.8586,2011/2/23 18:23
2011/2/25 0:00,5.218,69.21,16.66,2011/2/24 20:09,92.9,-0.999,1.573,2011/2/24 14:47,-3.328,2011/2/24 10:17,62.29,98.1,2011/2/24 12:27,39.74,2011/2/24 5:17,74.60004,169.3763,5.511681,974.8947,979.9313,2011/2/24 23:59,971.4801,2011/2/24 0:00
2011/2/26 0:00,1.859,237.7,10.58,2011/2/25 0:31,73.24,-1.592,2.114,2011/2/25 13:05,-3.744,2011/2/25 7:11,85.4,97.8,2011/2/25 4:06,55.96,2011/2/25 0:43,98.84283,214.3893,6.187214,980.5399,981.0242,2011/2/25 10:11,979.807,2011/2/25 0:01
2011/2/27 0:00,2.837,45.52,12.25,2011/2/26 14:10,342.3,-3.325,-2.128,2011/2/26 17:13,-4.243,2011/2/26 5:44,90.3,96.7,2011/2/26 2:45,70.99,2011/2/26 17:13,83.1609,184.4869,5.184146,980.3111,981.155,2011/2/26 21:41,979.3097,2011/2/26 7:46
2011/2/28 0:00,2.428,35.87,7.938,2011/2/27 9:34,93.4,-2.94,4.444,2011/2/27 14:15,-9.59,2011/2/27 20:43,64.09,96.9,2011/2/27 2:47,38.19,2011/2/27 14:16,178.2675,314.9908,9.605789,980.9962,982.7896,2011/2/27 23:53,980.4242,2011/2/27 16:42
2011/3/1 0:00,2.658,273.7,6.566,2011/2/28 7:32,69.43,-7.97,-6.566,2011/2/28 10:02,-11.55,2011/2/28 6:06,63.39,86.5,2011/2/28 17:57,43,2011/2/28 8:04,76.39544,161.0031,5.149518,986.3533,987.981,2011/2/28 23:53,982.7896,2011/2/28 0:00
2011/3/2 0:00,3.211,71.08,8.13,2011/3/1 4:42,82.4,-7.249,-3.699,2011/3/1 11:33,-9.76,2011/3/1 5:40,53.84,73.89,2011/3/1 0:01,38.48,2011/3/1 11:23,171.6834,288.495,8.565396,985.9171,988.0151,2011/3/1 1:55,983.9083,2011/3/1 18:40
2011/3/3 0:00,2.512,304.8,11.17,2011/3/2 23:02,59.37,-7.762,-3.373,2011/3/2 16:48,-12.96,2011/3/2 6:29,63.28,88.4,2011/3/2 20:04,38.47,2011/3/2 22:45,196.3283,305.9076,9.065479,982.5618,984.535,2011/3/2 0:28,980.5527,2011/3/2 19:16
2011/3/4 0:00,2.687,7.064,9.21,2011/3/3 0:02,22.98,-10.71,-6.397,2011/3/3 16:16,-17.7,2011/3/3 23:32,55.75,84.9,2011/3/3 23:45,37.63,2011/3/3 16:17,196.3692,299.5004,8.841838,982.476,986.3819,2011/3/4 0:00,980.5609,2011/3/3 5:15
2011/3/5 0:00,1.828,303.6,5.39,2011/3/4 8:34,245.3,-12.16,-5.275,2011/3/4 15:57,-17.79,2011/3/4 2:35,70.77,88.4,2011/3/4 4:24,46.02,2011/3/4 11:05,190.6067,291.7211,8.61011,989.3848,991.6217,2011/3/4 21:00,986.3606,2011/3/4 0:01
2011/3/6 0:00,2.463,263,7.742,2011/3/5 21:25,71.36,-12.32,-7.248,2011/3/5 17:18,-17.87,2011/3/5 4:25,68.37,89.8,2011/3/5 7:49,34.3,2011/3/5 20:14,186.5356,284.4367,8.615537,986.4655,991.5051,2011/3/5 0:20,978.8197,2011/3/5 23:42
2011/3/7 0:00,2.704,44.32,9.9,2011/3/6 7:17,93.9,-9.79,-5.695,2011/3/6 16:48,-15.14,2011/3/6 6:00,44.97,65.68,2011/3/6 17:03,26.21,2011/3/6 14:01,173.1634,267.1895,7.922328,979.988,987.6498,2011/3/6 23:59,976.9573,2011/3/6 6:57
2011/3/8 0:00,2.217,4.754,8.62,2011/3/7 0:07,71.84,-11.07,-5.698,2011/3/7 11:51,-15.76,2011/3/7 22:14,50.25,80.2,2011/3/7 23:54,27.49,2011/3/7 11:54,169.2723,267.4099,7.805503,993.8494,996.9772,2011/3/7 22:49,987.6498,2011/3/7 0:00
2011/3/9 0:00,1.894,252,6.958,2011/3/8 16:23,232.8,-12.19,-8.31,2011/3/8 16:48,-16.96,2011/3/8 1:33,51.14,82.9,2011/3/8 1:49,24.86,2011/3/8 17:22,175.2123,264.2036,7.715842,991.8364,996.7285,2011/3/8 0:00,985.9194,2011/3/8 23:58
2011/3/10 0:00,5.719,69.47,20.58,2011/3/9 8:18,104,-4.982,-0.918,2011/3/9 20:43,-13.59,2011/3/9 1:31,60.11,90,2011/3/9 19:19,34.37,2011/3/9 1:04,51.40972,114.9819,3.602913,978.0537,986.0399,2011/3/9 0:00,973.5983,2011/3/9 10:25
2011/3/11 0:00,7.457,80.3,24.89,2011/3/10 3:20,63.2,-1.542,0.538,2011/3/10 13:02,-3.615,2011/3/10 22:22,49.25,74.07,2011/3/10 13:22,35.67,2011/3/10 18:58,43.96938,103.2191,3.282916,983.1139,984.7838,2011/3/10 23:27,979.6865,2011/3/10 0:00
2011/3/12 0:00,1.818,223.6,7.252,2011/3/11 2:43,106.3,-3.939,-1.335,2011/3/11 12:16,-6.15,2011/3/11 3:58,68.53,92.6,2011/3/11 19:19,43.46,2011/3/11 0:17,74.33041,146.1812,4.549154,983.9866,984.7838,2011/3/11 0:00,983.1627,2011/3/11 18:27
2011/3/13 0:00,1.795,221.7,7.154,2011/3/12 23:59,70.38,-4.164,-1.435,2011/3/12 14:17,-7.477,2011/3/12 20:43,78.38,95.2,2011/3/12 3:14,49.09,2011/3/12 19:12,74.71066,153.5096,4.345705,980.8759,983.9135,2011/3/12 0:28,977.4485,2011/3/12 22:55
2011/3/14 0:00,2.83,82.2,12.45,2011/3/13 14:14,91.4,-3.607,-0.588,2011/3/13 16:49,-8.16,2011/3/13 1:38,67.43,96.7,2011/3/13 8:54,46.16,2011/3/13 21:15,71.00949,153.1675,3.679306,979.7241,985.6539,2011/3/13 23:43,976.7026,2011/3/13 5:16
2011/3/15 0:00,2.655,76,18.23,2011/3/14 23:54,101.5,-4.978,-0.875,2011/3/14 12:14,-9.71,2011/3/14 10:17,52.69,74.58,2011/3/14 14:24,36.28,2011/3/14 12:09,103.9621,175.6224,5.586299,984.2308,987.5188,2011/3/14 9:16,974.962,2011/3/14 23:56
2011/3/16 0:00,13.4,83,26.66,2011/3/15 5:57,91.9,-1.368,1.522,2011/3/15 17:52,-5.11,2011/3/15 3:59,42.46,58.23,2011/3/15 4:45,35.27,2011/3/15 3:52,23.35686,60.84357,1.915769,963.6431,975.0864,2011/3/15 0:00,959.6702,2011/3/15 13:14
2011/3/17 0:00,12.86,83.1,26.07,2011/3/16 3:20,97.7,-1.592,1.115,2011/3/16 2:03,-5.235,2011/3/16 23:33,33.91,47.27,2011/3/16 0:07,27.82,2011/3/16 23:24,50.05724,106.3194,3.459283,963.8159,965.8864,2011/3/16 23:53,961.6594,2011/3/16 8:29
2011/3/18 0:00,6.27,70.96,20.97,2011/3/17 1:01,98.6,-3.349,0.382,2011/3/17 20:50,-6.896,2011/3/17 5:57,41.74,63.28,2011/3/17 14:18,28.69,2011/3/17 2:17,86.75623,156.4871,4.622361,972.3458,980.1838,2011/3/17 23:56,965.1404,2011/3/17 0:32
2011/3/19 0:00,6.147,59.56,22.34,2011/3/18 9:29,95.3,-1.7,0.824,2011/3/18 5:11,-7.602,2011/3/18 23:41,45.51,61.4,2011/3/18 21:57,33.41,2011/3/18 15:10,34.36308,77.16123,2.175459,989.4962,993.8539,2011/3/18 15:54,980.1838,2011/3/18 0:00
2011/3/20 0:00,2.574,5.701,7.644,2011/3/19 3:53,73.73,-9.27,-5.155,2011/3/19 13:07,-12.19,2011/3/19 23:36,55.13,76.91,2011/3/19 21:44,32.48,2011/3/19 9:33,121.6306,184.6069,5.145944,985.6178,992.1188,2011/3/19 0:00,982.173,2011/3/19 16:42
2011/3/21 0:00,1.998,223.6,5.978,2011/3/20 2:11,90.5,-9.61,-8.6,2011/3/20 17:37,-12.69,2011/3/20 1:04,59.97,82,2011/3/21 0:00,41.86,2011/3/20 9:39,47.11226,90.8411,2.84798,987.1787,989.9097,2011/3/20 23:59,984.0431,2011/3/20 0:00
2011/3/22 0:00,2.472,240,5.978,2011/3/21 9:29,228.5,-10.53,-8.31,2011/3/21 14:29,-11.83,2011/3/21 4:40,81.6,91.2,2011/3/21 22:12,69.49,2011/3/21 3:48,79.56516,135.2091,3.978444,991.0664,991.771,2011/3/21 15:36,989.8965,2011/3/21 0:26
2011/3/23 0:00,2.704,49.5,7.252,2011/3/22 20:37,68.98,-9.97,-7.352,2011/3/22 14:04,-12.33,2011/3/22 8:27,75.64,90.5,2011/3/22 0:04,49.52,2011/3/22 23:50,49.39196,94.36225,2.885988,990.3307,991.3887,2011/3/22 23:50,989.3982,2011/3/22 14:25
2011/3/24 0:00,2.884,40.66,8.33,2011/3/23 0:58,57.48,-11.99,-8.1,2011/3/23 15:42,-15.02,2011/3/23 6:35,50,71.82,2011/3/23 16:56,34.99,2011/3/23 12:54,95.09737,148.5044,4.545354,997.2119,1004.825,2011/3/23 23:53,991.3887,2011/3/23 0:00
2011/3/25 0:00,1.561,25.41,6.174,2011/3/24 5:30,34.02,-11.12,-6.027,2011/3/24 15:58,-13.98,2011/3/24 0:27,51.98,64.14,2011/3/24 12:44,37.44,2011/3/24 16:11,83.08489,134.9877,3.932112,1008.404,1010.05,2011/3/24 13:19,1004.825,2011/3/24 0:00
2011/3/26 0:00,1.693,258,4.9,2011/3/25 13:16,241,-14.3,-10.78,2011/3/25 14:29,-18.29,2011/3/25 6:13,60.54,76.57,2011/3/25 7:26,44.04,2011/3/25 13:03,101.7177,150.2001,4.267105,1003.39,1007.935,2011/3/25 0:00,999.3921,2011/3/26 0:00
2011/3/27 0:00,2.514,232.3,8.62,2011/3/26 13:23,234.8,-9.79,-3.92,2011/3/26 23:48,-15.6,2011/3/26 4:09,71.45,96.6,2011/3/26 21:04,33.55,2011/3/26 6:48,40.94655,84.5751,2.704952,1001.366,1003.83,2011/3/26 21:22,999.256,2011/3/26 0:17
2011/3/28 0:00,2.77,181,9.31,2011/3/27 3:26,113.5,-2.782,-0.464,2011/3/27 11:15,-5.68,2011/3/27 2:00,72,97.9,2011/3/27 17:17,45.03,2011/3/27 11:14,30.9353,75.28871,2.28039,1003.717,1004.692,2011/3/27 15:16,1002.574,2011/3/27 6:42
2011/3/29 0:00,1.344,106.7,5.292,2011/3/28 15:14,232.2,-6.209,-2.893,2011/3/28 2:57,-14.02,2011/3/28 20:12,65.93,88.3,2011/3/28 0:45,39.89,2011/3/28 8:18,58.44008,109.736,3.666112,1000.998,1003.805,2011/3/28 0:59,998.7089,2011/3/28 19:38
2011/3/30 0:00,1.851,63.24,9.02,2011/3/29 4:43,99.6,-8.55,-2.703,2011/3/29 13:55,-14.39,2011/3/29 12:55,47.69,75.76,2011/3/29 12:57,30.56,2011/3/29 4:49,86.66616,133.8087,3.947846,999.8002,1000.708,2011/3/29 19:44,998.7195,2011/3/29 14:15
2011/3/31 0:00,1.158,68.01,6.37,2011/3/30 4:56,54.62,-13.01,-7.269,2011/3/30 10:52,-20.97,2011/3/30 19:03,51.49,77.5,2011/3/30 19:09,32.25,2011/3/30 10:53,84.97762,126.3719,3.726281,993.3253,999.2264,2011/3/30 0:00,990.1446,2011/3/30 19:13
2011/4/1 0:00,0.947,210.6,3.43,2011/3/31 8:50,246.4,-14.78,-9.05,2011/3/31 14:24,-21.55,2011/3/31 18:39,62.32,84.1,2011/3/31 18:55,44.66,2011/3/31 6:24,80.44433,121.2565,3.574657,992.2788,994.01,2011/3/31 22:02,990.152,2011/3/31 0:07
2011/4/2 0:00,0.736,181.1,3.92,2011/4/1 12:40,241.6,-15.32,-10.09,2011/4/1 14:09,-21.71,2011/4/1 18:44,65.54,87.2,2011/4/1 20:51,45.4,2011/4/1 8:36,76.24165,116.7712,3.420834,996.5233,1000.108,2011/4/1 23:52,993.8856,2011/4/1 0:59
2011/4/3 0:00,1.588,239.2,7.448,2011/4/2 21:49,93.4,-10.56,-7.436,2011/4/2 22:36,-17.04,2011/4/2 0:00,80.5,90,2011/4/2 6:14,54.05,2011/4/2 23:55,44.10296,81.39919,2.729527,1000.302,1001.726,2011/4/2 9:33,996.614,2011/4/2 23:46
2011/4/4 0:00,10.7,78.77,29.01,2011/4/3 20:05,102.5,-3.822,-0.878,2011/4/3 23:28,-8.18,2011/4/3 0:10,64.68,85.2,2011/4/3 5:01,52.63,2011/4/3 0:24,19.47086,43.38161,1.351419,985.0487,996.614,2011/4/3 0:00,975.4452,2011/4/3 22:12
2011/4/5 0:00,8.69,59.32,20.78,2011/4/4 14:58,63.68,-0.803,0.454,2011/4/4 3:54,-3.553,2011/4/4 23:20,63.66,90.3,2011/4/4 19:06,53.07,2011/4/4 12:23,17.49652,40.05114,1.242325,982.1084,994.1082,2011/4/4 23:41,976.7135,2011/4/4 1:55
2011/4/6 0:00,3.782,58.98,13.72,2011/4/5 1:01,59.84,-2.871,-1.087,2011/4/5 14:06,-6.85,2011/4/5 23:25,61.45,88.4,2011/4/5 7:12,46.59,2011/4/5 21:24,27.43265,56.06484,1.753235,1001.371,1004.054,2011/4/5 14:58,994.1082,2011/4/5 0:00
2011/4/7 0:00,2.189,359,8.13,2011/4/6 23:38,19.16,-7.991,-4.268,2011/4/6 23:13,-12.08,2011/4/6 18:16,57.64,82.5,2011/4/6 20:56,40.71,2011/4/6 13:57,53.02563,81.93817,2.408567,990.5713,1000.946,2011/4/6 0:00,980.934,2011/4/6 23:55
2011/4/8 0:00,7.114,63.97,18.62,2011/4/7 19:52,74.7,-3.849,-2.222,2011/4/7 11:20,-6.065,2011/4/7 23:59,40.6,58.92,2011/4/7 0:50,29.91,2011/4/7 17:47,22.66733,46.02505,1.363364,977.4468,981.0583,2011/4/7 0:01,976.0837,2011/4/7 10:56
2011/4/9 0:00,3.809,70.15,10.98,2011/4/8 0:22,83.3,-6.779,-5.239,2011/4/8 2:02,-9.61,2011/4/8 23:01,51.95,70.89,2011/4/8 15:54,38.21,2011/4/8 0:24,37.50336,67.56061,1.835665,981.3719,983.2969,2011/4/8 23:30,978.3246,2011/4/8 0:05